Sacramento, CA

4:01 AM PST on February 13, 2016 (GMT -0800)
Sacramento Executive

Weather History for KSAC - February, 2013

Change the Weather History Date:

Sunday, February 3, 2013

  Actual Average Record
Temperature  
Mean Temperature 50 °F -  
Max Temperature 62 °F 58 °F 69 °F (2015)
Min Temperature 38 °F 40 °F 27 °F (1971)
Degree Days  
Heating Degree Days 15    
Cooling Degree Days 0    
Moisture  
Dew Point 41 °F    
Average Humidity 78    
Maximum Humidity 100    
Minimum Humidity 55    
Precipitation  
Precipitation 0.00 in 0.13 in 2.16 in (1998)
Month to date precipitation 0.00 0.38  
Year to date precipitation 0.96 4.02  
Since 1 July precipitation 12.25  
Sea Level Pressure  
Sea Level Pressure 30.20 in    
Wind  
Wind Speed 1 mph (SSE)    
Max Wind Speed 8 mph    
Max Gust Speed 10 mph    
Visibility 4 miles    
Events Fog    
T = Trace of Precipitation, MM = Missing Value Source: NWS Daily Summary

Daily Weather History Graph

Daily Weather History Graph

Search for Another Location

Airport or City:

Trip Planner

Search our weather history database for the weather conditions in past years. The results will help you decide how hot, cold, wet, or windy it might be!

Date:

Astronomy

Feb. 03, 2013 Rise Set
Actual Time 7:09 AM PST 5:30 PM PST
Civil Twilight 6:41 AM PST 5:58 PM PST
Nautical Twilight 6:09 AM PST 6:30 PM PST
Astronomical Twilight 5:38 AM PST 7:01 PM PST
Moon 12:42 AM PST (2/3) 11:12 AM PST (2/3)
Length of Visible Light 11h 17m
Length of Day
10h 21m
Waning Gibbous, 47% of the Moon is Illuminated
Feb 3
Waning Gibbous
Feb 9
New
Feb 17
First Quarter
Feb 25
Full
Mar 4
Last Quarter

Hourly Weather History & Observations

Time (PST) Temp. Windchill Dew Point Humidity Pressure Visibility Wind Dir Wind Speed Gust Speed Precip Events Conditions
12:53 AM 42.8 °F - 41.0 °F 93% 30.21 in 4.0 mi Calm Calm - N/A   Clear
1:53 AM 42.1 °F - 39.9 °F 92% 30.21 in 4.0 mi Calm Calm - N/A   Clear
2:16 AM 39.2 °F - 37.4 °F 93% 30.22 in 1.5 mi Calm Calm - N/A   Clear
2:25 AM 39.2 °F - 37.4 °F 93% 30.22 in 0.5 mi Calm Calm - N/A Fog Fog
2:37 AM 39.2 °F - 37.4 °F 93% 30.22 in 0.2 mi Calm Calm - N/A Fog Fog
2:53 AM 41.0 °F - 39.0 °F 93% 30.22 in 0.5 mi Calm Calm - N/A Fog Fog
2:58 AM 39.2 °F - 37.4 °F 93% 30.22 in 2.0 mi Calm Calm - N/A   Clear
3:07 AM 39.2 °F - 37.4 °F 93% 30.22 in 4.0 mi Calm Calm - N/A   Clear
3:53 AM 39.2 °F - 37.4 °F 93% 30.21 in 4.0 mi Calm Calm - N/A   Clear
3:57 AM 39.2 °F - 39.2 °F 100% 30.21 in 1.8 mi Calm Calm - N/A   Clear
4:08 AM 37.4 °F - 35.6 °F 93% 30.21 in 0.8 mi Calm Calm - N/A   Clear
4:17 AM 39.2 °F - 35.6 °F 87% 30.21 in 1.0 mi Calm Calm - N/A   Clear
4:28 AM 39.2 °F 37.0 °F 37.4 °F 93% 30.20 in 4.0 mi SE 3.5 mph - N/A   Clear
4:53 AM 39.9 °F 37.8 °F 37.9 °F 93% 30.20 in 5.0 mi ESE 3.5 mph - N/A   Clear
5:53 AM 39.9 °F 37.8 °F 37.9 °F 93% 30.22 in 4.0 mi ESE 3.5 mph - N/A   Clear
6:25 AM 39.2 °F - 37.4 °F 93% 30.22 in 2.5 mi Calm Calm - N/A   Partly Cloudy
6:30 AM 39.2 °F - 37.4 °F 93% 30.23 in 1.0 mi Calm Calm - N/A   Mist
6:53 AM 39.9 °F 37.8 °F 37.0 °F 89% 30.22 in 3.0 mi East 3.5 mph - N/A   Overcast
7:51 AM 41.0 °F - 37.4 °F 87% 30.23 in 3.0 mi Calm Calm - N/A   Overcast
7:53 AM 41.0 °F - 37.9 °F 89% 30.23 in 3.0 mi Calm Calm - N/A   Overcast
8:12 AM 42.8 °F 40.1 °F 41.0 °F 93% 30.23 in 1.5 mi SE 4.6 mph - N/A   Overcast
8:24 AM 42.8 °F 40.1 °F 42.8 °F 100% 30.23 in 0.8 mi SE 4.6 mph - N/A   Overcast
8:31 AM 42.8 °F 40.1 °F 42.8 °F 100% 30.23 in 1.0 mi SE 4.6 mph - N/A   Overcast
8:53 AM 43.0 °F - 42.1 °F 97% 30.24 in 0.5 mi Calm Calm - N/A Fog Fog
9:11 AM 44.6 °F - 42.8 °F 93% 30.24 in 1.2 mi Calm Calm - N/A   Overcast
9:53 AM 44.1 °F - 43.0 °F 96% 30.24 in 1.0 mi Calm Calm - N/A   Overcast
10:12 AM 44.6 °F - 42.8 °F 93% 30.25 in 0.8 mi Calm Calm - N/A   Overcast
10:23 AM 44.6 °F - 42.8 °F 93% 30.25 in 1.0 mi Calm Calm - N/A   Overcast
10:42 AM 46.4 °F - 44.6 °F 93% 30.25 in 2.5 mi Calm Calm - N/A   Overcast
10:53 AM 46.0 °F - 44.1 °F 93% 30.25 in 2.5 mi Calm Calm - N/A   Overcast
11:10 AM 46.4 °F - 44.6 °F 93% 30.24 in 3.0 mi Calm Calm - N/A   Overcast
11:28 AM 48.2 °F - 44.6 °F 87% 30.23 in 4.0 mi Calm Calm - N/A   Haze
11:37 AM 48.2 °F - 44.6 °F 87% 30.22 in 5.0 mi Calm Calm - N/A   Scattered Clouds
11:53 AM 52.0 °F - 45.0 °F 77% 30.21 in 6.0 mi Calm Calm - N/A   Haze
12:53 PM 55.9 °F - 45.0 °F 67% 30.19 in 8.0 mi Calm Calm - N/A   Clear
1:53 PM 57.9 °F - 46.9 °F 67% 30.16 in 8.0 mi NW 5.8 mph - N/A   Clear
2:53 PM 60.1 °F - 44.1 °F 55% 30.15 in 10.0 mi WNW 5.8 mph - N/A   Clear
3:53 PM 61.0 °F - 43.0 °F 52% 30.14 in 10.0 mi West 3.5 mph - N/A   Clear
4:53 PM 59.0 °F - 44.1 °F 58% 30.12 in 10.0 mi West 4.6 mph - N/A   Clear
5:53 PM 55.9 °F - 42.1 °F 60% 30.13 in 10.0 mi Calm Calm - N/A   Clear
6:53 PM 50.0 °F - 42.1 °F 74% 30.13 in 10.0 mi Calm Calm - N/A   Clear
7:53 PM 51.1 °F - 44.1 °F 77% 30.13 in 10.0 mi SSW 3.5 mph - N/A   Clear
8:53 PM 48.0 °F - 44.1 °F 86% 30.14 in 10.0 mi Calm Calm - N/A   Clear
9:53 PM 44.1 °F - 41.0 °F 89% 30.14 in 7.0 mi Calm Calm - N/A   Clear
10:53 PM 44.1 °F - 41.0 °F 89% 30.14 in 4.0 mi Calm Calm - N/A   Clear
11:53 PM 45.0 °F - 42.1 °F 90% 30.14 in 9.0 mi Calm Calm - N/A   Clear